Torna al catalogo

STARLINK-32662

AttivoComunicazioniVLEO
NORAD 62215·PAYLOAD·🇺🇸 United States

Lanciato Dec 4, 2024 da Cape Canaveral Space Force Station

Loading…

Prossimi Passaggi (prossime 24 ore)

TLE

AggiornatoSource: CelesTrak SupGP

Epoca: Sep 14, 2026, 20:46 UTC

1 62215C 24229Z   26257.86576389 -.00004917  00000+0 -17814-3 0  2572
2 62215  43.0005 282.5428 0001526 271.4707 356.7457 15.27570394    14

Traccia STARLINK-32662 in tempo reale con AllMySat

Download on the App Store